DAL1488 KCLT-KATL

Flight info

Callsign DAL1488
Flight time 0h 41m
Altitude 32000
Route BOBZY5 TNSLY DCT LEAVI OZZZI1
Aircraft A21N/M-V/N

Departure

Time 2026-05-08 01:18
Airport Charlotte Douglas International Airport (KCLT)

Arrival

Time 2026-05-08 01:59
Airport Hartsfield Jackson Atlanta International Airport (KATL)
Time Latitude Longitude Altitude Speed Heading
2026-05-08 01:03 35.21965 -80.94796 724 ft 0 kts 359°
2026-05-08 01:09 35.21966 -80.94796 724 ft 1 kts 359°
2026-05-08 01:09 35.21962 -80.94796 723 ft 2 kts 359°
2026-05-08 01:09 35.21949 -80.94795 724 ft 2 kts 359°
2026-05-08 01:10 35.21935 -80.94795 722 ft 2 kts 359°
2026-05-08 01:10 35.21919 -80.94795 724 ft 3 kts 359°
2026-05-08 01:10 35.21897 -80.94794 721 ft 3 kts 359°
2026-05-08 01:10 35.21881 -80.94786 722 ft 0 kts 269°
2026-05-08 01:11 35.21881 -80.94790 722 ft 0 kts 269°
2026-05-08 01:11 35.21881 -80.94795 722 ft 2 kts 269°
2026-05-08 01:11 35.21880 -80.94822 722 ft 5 kts 269°
2026-05-08 01:12 35.21880 -80.94834 720 ft 0 kts 269°
2026-05-08 01:12 35.21880 -80.94837 720 ft 3 kts 268°
2026-05-08 01:12 35.21874 -80.94939 723 ft 17 kts 264°
2026-05-08 01:13 35.21833 -80.95038 723 ft 9 kts 197°
2026-05-08 01:13 35.21712 -80.95027 723 ft 29 kts 174°
2026-05-08 01:13 35.21503 -80.95012 724 ft 30 kts 175°
2026-05-08 01:13 35.21289 -80.94991 725 ft 31 kts 176°
2026-05-08 01:14 35.21074 -80.94977 726 ft 31 kts 175°
2026-05-08 01:14 35.20858 -80.94957 728 ft 31 kts 176°
2026-05-08 01:14 35.20639 -80.94936 731 ft 32 kts 176°
2026-05-08 01:14 35.20418 -80.94917 734 ft 32 kts 175°
2026-05-08 01:15 35.20196 -80.94893 732 ft 32 kts 175°
2026-05-08 01:15 35.20031 -80.94903 733 ft 13 kts 224°
2026-05-08 01:15 35.20021 -80.94952 733 ft 0 kts 266°
2026-05-08 01:16 35.20020 -80.95008 733 ft 25 kts 273°
2026-05-08 01:16 35.20107 -80.95089 734 ft 11 kts 359°
2026-05-08 01:17 35.20112 -80.95089 734 ft 0 kts 356°
2026-05-08 01:17 35.20114 -80.95089 734 ft 4 kts 356°
2026-05-08 01:18 35.20451 -80.95120 733 ft 94 kts 356°
2026-05-08 01:18 35.21417 -80.95203 744 ft 178 kts 355°
2026-05-08 01:18 35.22749 -80.95322 1356 ft 202 kts 355°
2026-05-08 01:18 35.24247 -80.95388 1933 ft 235 kts
2026-05-08 01:19 35.25878 -80.95010 2352 ft 225 kts 12°
2026-05-08 01:19 35.27382 -80.94458 2932 ft 239 kts 18°
2026-05-08 01:19 35.28948 -80.93809 3664 ft 241 kts 18°
2026-05-08 01:19 35.30555 -80.93138 4438 ft 247 kts 18°
2026-05-08 01:20 35.32194 -80.92454 5232 ft 253 kts 18°
2026-05-08 01:20 35.33903 -80.91741 6096 ft 265 kts 18°
2026-05-08 01:20 35.35672 -80.91002 7014 ft 271 kts 18°
2026-05-08 01:20 35.37473 -80.90250 7938 ft 275 kts 18°
2026-05-08 01:21 35.39335 -80.89472 8025 ft 286 kts 18°
2026-05-08 01:21 35.41204 -80.88691 7997 ft 283 kts 18°
2026-05-08 01:21 35.43065 -80.87915 7999 ft 282 kts 18°
2026-05-08 01:21 35.44977 -80.87443 7999 ft 281 kts 358°
2026-05-08 01:22 35.46849 -80.88007 7998 ft 279 kts 332°
2026-05-08 01:22 35.48307 -80.89534 8001 ft 278 kts 305°
2026-05-08 01:22 35.49048 -80.91703 8001 ft 277 kts 278°
2026-05-08 01:22 35.49052 -80.94066 8001 ft 278 kts 264°
2026-05-08 01:23 35.48821 -80.96392 8000 ft 279 kts 262°
2026-05-08 01:23 35.48554 -80.98756 8000 ft 279 kts 262°
2026-05-08 01:23 35.48285 -81.01114 8000 ft 279 kts 262°
2026-05-08 01:23 35.47827 -81.03425 7999 ft 279 kts 247°
2026-05-08 01:24 35.46951 -81.05548 8000 ft 279 kts 241°
2026-05-08 01:24 35.45990 -81.07620 8001 ft 280 kts 240°
2026-05-08 01:24 35.45004 -81.09676 8000 ft 280 kts 239°
2026-05-08 01:24 35.44009 -81.11720 7999 ft 280 kts 239°
2026-05-08 01:25 35.43031 -81.13800 8222 ft 285 kts 241°
2026-05-08 01:25 35.41971 -81.15945 8902 ft 303 kts 236°
2026-05-08 01:25 35.40858 -81.18159 10024 ft 310 kts 240°
2026-05-08 01:25 35.39758 -81.20479 11032 ft 319 kts 239°
2026-05-08 01:26 35.38612 -81.22846 12092 ft 326 kts 239°
2026-05-08 01:26 35.37442 -81.25255 13168 ft 332 kts 239°
2026-05-08 01:26 35.36250 -81.27709 14224 ft 338 kts 239°
2026-05-08 01:26 35.35041 -81.30198 15153 ft 343 kts 239°
2026-05-08 01:27 35.33789 -81.32779 15737 ft 362 kts 239°
2026-05-08 01:27 35.32462 -81.35515 16125 ft 384 kts 239°
2026-05-08 01:27 35.31063 -81.38400 16483 ft 404 kts 239°
2026-05-08 01:27 35.29597 -81.41425 16838 ft 421 kts 239°
2026-05-08 01:28 35.28089 -81.44540 17370 ft 430 kts 239°
2026-05-08 01:28 35.26554 -81.47711 17993 ft 435 kts 239°
2026-05-08 01:28 35.25005 -81.50914 18635 ft 440 kts 239°
2026-05-08 01:28 35.23441 -81.54150 19274 ft 444 kts 239°
2026-05-08 01:29 35.21863 -81.57417 19901 ft 448 kts 239°
2026-05-08 01:29 35.20271 -81.60717 20513 ft 452 kts 239°
2026-05-08 01:29 35.18666 -81.64044 21099 ft 456 kts 239°
2026-05-08 01:29 35.17048 -81.67400 21657 ft 460 kts 239°
2026-05-08 01:30 35.15464 -81.70817 22184 ft 464 kts 243°
2026-05-08 01:30 35.14187 -81.74450 22690 ft 468 kts 252°
2026-05-08 01:30 35.13416 -81.78306 23193 ft 468 kts 259°
2026-05-08 01:30 35.12941 -81.82255 23660 ft 472 kts 267°
2026-05-08 01:31 35.13012 -81.86276 24087 ft 475 kts 271°
2026-05-08 01:31 35.13020 -81.90328 24506 ft 479 kts 268°
2026-05-08 01:31 35.12591 -81.94383 24921 ft 482 kts 258°
2026-05-08 01:31 35.11639 -81.98315 25353 ft 485 kts 249°
2026-05-08 01:32 35.10435 -82.02158 25886 ft 485 kts 250°
2026-05-08 01:32 35.09345 -82.06063 26462 ft 484 kts 251°
2026-05-08 01:32 35.08301 -82.09905 27017 ft 483 kts 251°
2026-05-08 01:32 35.07172 -82.13767 27561 ft 482 kts 250°
2026-05-08 01:33 35.06019 -82.17612 28078 ft 481 kts 250°
2026-05-08 01:33 35.04871 -82.21432 28651 ft 478 kts 250°
2026-05-08 01:33 35.03731 -82.25229 29246 ft 475 kts 250°
2026-05-08 01:33 35.02599 -82.29002 29790 ft 473 kts 250°
2026-05-08 01:34 35.01471 -82.32769 30319 ft 472 kts 250°
2026-05-08 01:34 35.00265 -82.36484 30819 ft 471 kts 245°
2026-05-08 01:34 34.98742 -82.40013 31293 ft 470 kts 239°
2026-05-08 01:34 34.96975 -82.43360 31752 ft 470 kts 236°
2026-05-08 01:35 34.95152 -82.46675 31987 ft 469 kts 236°
2026-05-08 01:35 34.91513 -82.53267 32000 ft 469 kts 236°
2026-05-08 01:36 34.87869 -82.59874 32000 ft 470 kts 236°
2026-05-08 01:36 34.84301 -82.66353 31997 ft 448 kts 236°
2026-05-08 01:37 34.80870 -82.72591 32000 ft 441 kts 236°
2026-05-08 01:37 34.77461 -82.78795 32000 ft 441 kts 236°
2026-05-08 01:38 34.74064 -82.84988 31925 ft 438 kts 236°
2026-05-08 01:38 34.72387 -82.88046 31309 ft 433 kts 236°
2026-05-08 01:38 34.70715 -82.91099 30552 ft 433 kts 236°
2026-05-08 01:38 34.69039 -82.94160 30127 ft 436 kts 236°
2026-05-08 01:39 34.67359 -82.97232 30018 ft 438 kts 236°
2026-05-08 01:39 34.63936 -83.03373 30000 ft 438 kts 234°
2026-05-08 01:39 34.62172 -83.06381 29602 ft 434 kts 234°
2026-05-08 01:40 34.60426 -83.09351 28851 ft 432 kts 234°
2026-05-08 01:40 34.58710 -83.12269 28134 ft 428 kts 234°
2026-05-08 01:40 34.56963 -83.15243 27345 ft 426 kts 234°
2026-05-08 01:40 34.55267 -83.18131 26474 ft 427 kts 234°
2026-05-08 01:41 34.53538 -83.21058 25655 ft 426 kts 234°
2026-05-08 01:41 34.51780 -83.23959 25172 ft 427 kts 233°
2026-05-08 01:41 34.50011 -83.26869 25008 ft 430 kts 234°
2026-05-08 01:41 34.48269 -83.29818 25005 ft 430 kts 235°
2026-05-08 01:42 34.46574 -83.32810 24964 ft 429 kts 236°
2026-05-08 01:42 34.44904 -83.35771 24369 ft 423 kts 236°
2026-05-08 01:42 34.43250 -83.38705 23512 ft 421 kts 236°
2026-05-08 01:42 34.41606 -83.41625 22641 ft 419 kts 236°
2026-05-08 01:43 34.39962 -83.44532 21719 ft 417 kts 235°
2026-05-08 01:43 34.38297 -83.47395 20999 ft 411 kts 235°
2026-05-08 01:43 34.36679 -83.50170 20669 ft 395 kts 235°
2026-05-08 01:43 34.35110 -83.52860 19885 ft 392 kts 235°
2026-05-08 01:44 34.33548 -83.55541 19182 ft 387 kts 235°
2026-05-08 01:44 34.32015 -83.58171 18642 ft 378 kts 235°
2026-05-08 01:44 34.30521 -83.60738 18119 ft 369 kts 235°
2026-05-08 01:44 34.29019 -83.63223 17606 ft 363 kts 230°
2026-05-08 01:45 34.27277 -83.65414 17106 ft 361 kts 223°
2026-05-08 01:45 34.25425 -83.67389 16608 ft 357 kts 221°
2026-05-08 01:45 34.23569 -83.69336 16117 ft 349 kts 221°
2026-05-08 01:45 34.21780 -83.71209 15621 ft 332 kts 221°
2026-05-08 01:46 34.20080 -83.72991 15154 ft 317 kts 221°
2026-05-08 01:46 34.18430 -83.74720 14710 ft 312 kts 221°
2026-05-08 01:46 34.16801 -83.76428 14043 ft 308 kts 221°
2026-05-08 01:46 34.15200 -83.78108 13252 ft 303 kts 221°
2026-05-08 01:47 34.13615 -83.79764 12511 ft 300 kts 220°
2026-05-08 01:47 34.12561 -83.80841 12207 ft 300 kts 220°
2026-05-08 01:47 34.10941 -83.82477 12018 ft 300 kts 220°
2026-05-08 01:48 34.07678 -83.85478 11606 ft 291 kts 214°
2026-05-08 01:48 34.06008 -83.86846 10781 ft 289 kts 214°
2026-05-08 01:48 34.04340 -83.88185 9951 ft 287 kts 214°
2026-05-08 01:48 34.02691 -83.89527 9325 ft 286 kts 214°
2026-05-08 01:49 34.01045 -83.90869 9045 ft 286 kts 214°
2026-05-08 01:49 33.99400 -83.92211 8997 ft 285 kts 214°
2026-05-08 01:49 33.97760 -83.93550 8999 ft 284 kts 214°
2026-05-08 01:49 33.96135 -83.94876 8996 ft 278 kts 214°
2026-05-08 01:50 33.94547 -83.96172 8924 ft 272 kts 214°
2026-05-08 01:50 33.92996 -83.97439 8297 ft 268 kts 214°
2026-05-08 01:50 33.91458 -83.98694 7509 ft 267 kts 214°
2026-05-08 01:50 33.89927 -83.99945 6775 ft 265 kts 214°
2026-05-08 01:51 33.88415 -84.01180 6235 ft 259 kts 214°
2026-05-08 01:51 33.86978 -84.02353 5973 ft 241 kts 214°
2026-05-08 01:51 33.85626 -84.03458 5991 ft 233 kts 214°
2026-05-08 01:51 33.84274 -84.04563 5998 ft 238 kts 214°
2026-05-08 01:52 33.82900 -84.05687 6001 ft 239 kts 214°
2026-05-08 01:52 33.81558 -84.06785 5998 ft 230 kts 214°
2026-05-08 01:52 33.80236 -84.07865 5999 ft 229 kts 214°
2026-05-08 01:52 33.78917 -84.08944 6001 ft 231 kts 214°
2026-05-08 01:53 33.77590 -84.10030 5717 ft 230 kts 214°
2026-05-08 01:53 33.76257 -84.11120 5105 ft 234 kts 214°
2026-05-08 01:53 33.74909 -84.12224 4578 ft 234 kts 214°
2026-05-08 01:53 33.73565 -84.13324 4086 ft 233 kts 214°
2026-05-08 01:54 33.72227 -84.14419 3631 ft 230 kts 214°
2026-05-08 01:54 33.70952 -84.15462 3394 ft 219 kts 214°
2026-05-08 01:54 33.69711 -84.16478 3100 ft 216 kts 214°
2026-05-08 01:54 33.68443 -84.17517 3001 ft 216 kts 214°
2026-05-08 01:55 33.67222 -84.18517 2995 ft 210 kts 214°
2026-05-08 01:55 33.66045 -84.19519 2989 ft 205 kts 223°
2026-05-08 01:55 33.65344 -84.20942 3001 ft 202 kts 254°
2026-05-08 01:55 33.65062 -84.22587 2998 ft 199 kts 263°
2026-05-08 01:56 33.64982 -84.24240 2999 ft 198 kts 269°
2026-05-08 01:56 33.64966 -84.25891 3011 ft 197 kts 269°
2026-05-08 01:56 33.64960 -84.27530 3003 ft 195 kts 270°
2026-05-08 01:56 33.64959 -84.29131 2934 ft 190 kts 270°
2026-05-08 01:57 33.64954 -84.30690 2698 ft 183 kts 270°
2026-05-08 01:57 33.64953 -84.32170 2462 ft 171 kts 270°
2026-05-08 01:57 33.64954 -84.33550 2218 ft 160 kts 270°
2026-05-08 01:57 33.64954 -84.34834 2009 ft 148 kts 270°
2026-05-08 01:58 33.64954 -84.36043 1823 ft 143 kts 270°
2026-05-08 01:58 33.64954 -84.37236 1635 ft 142 kts 270°
2026-05-08 01:58 33.64953 -84.38419 1447 ft 142 kts 270°
2026-05-08 01:58 33.64953 -84.39604 1259 ft 142 kts 270°
2026-05-08 01:59 33.64951 -84.40789 1070 ft 142 kts 269°
2026-05-08 01:59 33.64946 -84.41925 1009 ft 124 kts 274°
2026-05-08 01:59 33.64952 -84.42777 1009 ft 66 kts 270°
2026-05-08 01:59 33.64926 -84.43191 1010 ft 40 kts 250°
2026-05-08 02:00 33.64888 -84.43283 1010 ft 0 kts 240°
2026-05-08 02:00 33.64887 -84.43284 1010 ft 1 kts 240°
2026-05-08 02:00 33.64854 -84.43364 1009 ft 24 kts 253°
2026-05-08 02:00 33.64823 -84.43535 1010 ft 16 kts 234°
2026-05-08 02:01 33.64749 -84.43586 1010 ft 14 kts 206°
2026-05-08 02:01 33.64649 -84.43648 1009 ft 18 kts 208°
2026-05-08 02:01 33.64561 -84.43678 1010 ft 9 kts 157°
2026-05-08 02:01 33.64540 -84.43612 1010 ft 22 kts 88°
2026-05-08 02:02 33.64542 -84.43396 1010 ft 27 kts 90°
2026-05-08 02:02 33.64541 -84.43196 1010 ft 18 kts 91°
2026-05-08 02:02 33.64489 -84.43098 1010 ft 14 kts 173°
2026-05-08 02:02 33.64414 -84.43068 1010 ft 10 kts 162°
2026-05-08 02:03 33.64341 -84.43066 1010 ft 16 kts 179°
2026-05-08 02:03 33.64206 -84.43064 1009 ft 18 kts 179°
2026-05-08 02:03 33.64102 -84.43063 1009 ft 13 kts 172°
2026-05-08 02:03 33.64058 -84.43012 1009 ft 7 kts 115°
2026-05-08 02:04 33.64050 -84.42991 1009 ft 0 kts 114°